EW4787 Weather Reports


time (UTC)temp
F
wind
direction
speed
knots
gust
knots
rain 1hr
in
rain 24hr
in
rain mn
in
humidity
%
barometer
mb
20260510113048 0 21 6.1 14.8 0.00 0.00 0.00 1011.6
20260510111547 0 51 4.3 10.4 0.00 0.00 0.00 1011.5
20260510110039 0 43 4.3 15.6 0.00 0.00 0.00 1011.5
20260510104550 0 29 4.3 13.0 0.00 0.00 0.00 1011.8
20260510103030 0 11 3.5 13.9 0.00 0.00 0.00 1011.8
20260510101524 0 79 6.1 13.0 0.00 0.00 0.00 1011.6
20260510100020 0 65 6.1 19.1 0.00 0.00 0.00 1011.6
20260510094515 0 50 4.3 13.9 0.00 0.00 0.00 1011.8
20260510093012 0 34 4.3 11.3 0.00 0.00 0.00 1011.8
20260510091507 0 51 4.3 15.6 0.00 0.00 0.00 1011.8
20260510090005 0 74 3.5 13.0 0.00 0.00 0.00 1012.1
20260510084612 0 39 3.5 11.3 0.00 0.00 0.00 1012.0
20260510083115 0 321 4.3 13.0 0.00 0.00 0.00 1012.0
20260510081610 0 35 2.6 12.2 0.00 0.00 0.00 1012.0
20260510080051 0 30 0.0 0.0 0.00 0.00 0.00 1012.1
20260510074542 0 340 4.3 13.9 0.00 0.00 0.00 1012.2
20260510073047 0 34 4.3 11.3 0.00 0.00 0.00 1012.2
20260510071534 0 47 1.7 9.6 0.00 0.00 0.00 1012.3
20260510070035 0 62 2.6 10.4 0.00 0.00 0.00 1012.4
20260510064525 0 57 2.6 9.6 0.00 0.00 0.00 1012.3
20260510063022 0 38 2.6 10.4 0.00 0.00 0.00 1012.2
20260510061516 0 10 1.7 9.6 0.00 0.00 0.00 1012.1
20260510060021 0 16 2.6 10.4 0.00 0.00 0.00 1012.0
20260510054507 0 74 1.7 9.6 0.00 0.00 0.00 1012.0
20260510053003 0 74 0.9 7.8 0.00 0.00 0.00 1012.1
20260510051559 0 34 1.7 7.0 0.00 0.00 0.00 1012.0
20260510050054 0 337 2.6 7.0 0.00 0.00 0.00 1011.9
20260510044550 0 80 0.9 7.8 0.00 0.00 0.00 1011.8
20260510043046 0 327 0.0 3.5 0.00 0.00 0.00 1011.8
20260510041541 0 332 0.9 5.2 0.00 0.00 0.00 1012.0
20260510040037 0 36 1.7 7.0 0.00 0.00 0.00 1012.1
20260510034532 0 39 1.7 7.0 0.00 0.00 0.00 1012.1
20260510033027 0 346 1.7 5.2 0.00 0.00 0.00 1012.3
20260510031522 0 335 1.7 5.2 0.00 0.00 0.00 1012.3
20260510030017 0 327 0.0 4.3 0.00 0.00 0.00 1012.4
20260510024515 0 339 0.9 3.5 0.00 0.00 0.00 1012.3
20260510023009 0 329 0.9 3.5 0.00 0.00 0.00 1012.3
20260510021505 0 338 0.0 0.0 0.00 0.00 0.00 1012.2
20260510020100 0 332 0.0 0.0 0.00 0.00 0.00 1012.3
20260510014600 0 311 0.0 2.6 0.00 0.00 0.00 1012.5
20260510013106 0 338 0.9 3.5 0.00 0.00 0.00 1012.2
20260510011547 0 340 0.0 1.7 0.00 0.00 0.00 1012.4
20260510010043 0 11 1.7 5.2 0.00 0.00 0.00 1012.4
20260510004539 0 347 1.7 4.3 0.00 0.00 0.00 1012.3
20260510003034 0 13 1.7 8.7 0.00 0.00 0.00 1012.4
20260510001530 0 38 0.0 3.5 0.00 0.00 0.00 1012.4
20260510000025 0 46 1.7 4.3 0.00 0.00 0.00 1012.6
20260509234533 0 45 0.9 3.5 0.00 0.00 0.00 1012.5
20260509233017 0 81 0.9 5.2 0.00 0.00 0.00 1012.4
20260509231512 0 47 0.0 4.3 0.00 0.00 0.00 1012.5
20260509230008 0 31 0.9 5.2 0.00 0.00 0.00 1012.6
20260509224507 0 19 0.9 3.5 0.00 0.00 0.00 1012.5
20260509223006 0 5 0.0 3.5 0.00 0.00 0.00 1012.4
20260509221507 0 35 1.7 5.2 0.00 0.00 0.00 1012.3
20260509220011 0 42 2.6 7.0 0.00 0.00 0.00 1012.4
20260509214505 0 34 1.7 6.1 0.00 0.00 0.00 1012.5
20260509213005 0 360 3.5 7.8 0.00 0.00 0.00 1012.5
20260509211504 0 62 2.6 9.6 0.00 0.00 0.00 1012.4
20260509210004 0 349 3.5 8.7 0.00 0.00 0.00 1012.3
20260509204504 0 360 4.3 8.7 0.00 0.00 0.00 1012.1
20260509203002 0 30 2.6 7.0 0.00 0.00 0.00 1012.0
20260509201500 0 346 2.6 8.7 0.00 0.00 0.00 1012.1
20260509200109 0 48 2.6 6.1 0.00 0.00 0.00 1012.2
20260509194554 0 34 2.6 7.0 0.00 0.00 0.00 1012.0
20260509193050 0 30 1.7 3.5 0.00 0.00 0.00 1011.9
20260509191545 0 21 1.7 4.3 0.00 0.00 0.00 1011.7
20260509190052 0 5 2.6 5.2 0.00 0.00 0.00 1011.8
20260509184540 0 338 2.6 7.8 0.00 0.00 0.00 1011.8
20260509183032 0 360 2.6 9.6 0.00 0.00 0.00 1011.7
20260509181526 0 68 2.6 7.8 0.00 0.00 0.00 1011.6
20260509180023 0 42 3.5 13.0 0.00 0.00 0.00 1011.5
20260509174518 0 45 3.5 9.6 0.00 0.00 0.00 1011.5
20260509173013 0 59 3.5 8.7 0.00 0.00 0.00 1011.4
20260509171511 0 51 4.3 12.2 0.00 0.00 0.00 1011.3
20260509170004 0 42 5.2 12.2 0.00 0.00 0.00 1011.4
20260509164502 0 40 2.6 11.3 0.00 0.00 0.00 1011.6
20260509163110 0 40 4.3 11.3 0.00 0.00 0.00 1011.5
20260509161601 0 45 3.5 12.2 0.00 0.00 0.00 1011.6
20260509160055 0 22 5.2 13.0 0.00 0.00 0.00 1011.7
20260509154551 0 55 5.2 12.2 0.00 0.00 0.00 1011.8
20260509153046 0 12 3.5 9.6 0.00 0.00 0.00 1011.9
20260509151542 0 54 2.6 9.6 0.00 0.00 0.00 1012.1
20260509150037 0 28 3.5 8.7 0.00 0.00 0.00 1012.1
20260509144535 0 355 2.6 10.4 0.00 0.00 0.00 1011.8
20260509143029 0 60 3.5 10.4 0.00 0.00 0.00 1011.7
20260509141536 0 56 4.3 9.6 0.00 0.00 0.00 1011.5
20260509140021 0 344 5.2 10.4 0.00 0.00 0.00 1011.6
20260509134519 0 32 3.5 10.4 0.00 0.00 0.00 1011.7
20260509133015 0 57 4.3 13.9 0.00 0.00 0.00 1011.7
20260509131510 0 59 3.5 11.3 0.00 0.00 0.00 1011.7
20260509130005 0 55 5.2 12.2 0.00 0.00 0.00 1011.9
20260509124500 0 50 4.3 13.0 0.00 0.00 0.00 1011.9
20260509123100 0 39 3.5 10.4 0.00 0.00 0.00 1012.0
20260509121552 0 58 1.7 7.8 0.00 0.00 0.00 1012.2
20260509120048 0 19 5.2 10.4 0.00 0.00 0.00 1012.2
20260509114544 0 54 2.6 7.8 0.00 0.00 0.00 1012.4